DW8010 Weather Reports


time (UTC)temp
C
wind
direction
speed
KPH
gust
KPH
rain 1hr
cm
rain 24hr
cm
rain mn
cm
humidity
%
barometer
mb
20260510190527 32 0.0 0.0 0.00 0.00 0.00 72 1011.3
20260510190047 32 0.0 0.0 0.00 0.00 0.00 70 1011.4
20260510185527 32 0.0 0.0 0.00 0.00 0.00 72 1011.4
20260510185027 31 0.0 0.0 0.00 0.00 0.00 71 1011.4
20260510184559 32 0.0 0.0 0.00 0.00 0.00 72 1011.5
20260510184031 32 0.0 0.0 0.00 0.00 0.00 69 1011.4
20260510183525 32 0.0 0.0 0.00 0.00 0.00 71 1011.5
20260510183041 31 0.0 0.0 0.00 0.00 0.00 74 1011.5
20260510182527 31 0.0 0.0 0.00 0.00 0.00 75 1011.6
20260510182114 31 0.0 0.0 0.00 0.00 0.00 75 1011.6
20260510181555 31 0.0 0.0 0.00 0.00 0.00 75 1011.6
20260510181029 31 0.0 0.0 0.00 0.00 0.00 74 1011.6
20260510180529 31 0.0 0.0 0.00 0.00 0.00 74 1011.6
20260510180056 31 0.0 0.0 0.00 0.00 0.00 75 1011.7
20260510175527 31 0.0 0.0 0.00 0.00 0.00 75 1011.8
20260510175027 31 0.0 0.0 0.00 0.00 0.00 76 1011.8
20260510174539 30 0.0 0.0 0.00 0.00 0.00 77 1011.9
20260510174027 30 0.0 0.0 0.00 0.00 0.00 76 1012.0
20260510173527 30 0.0 0.0 0.00 0.00 0.00 78 1012.1
20260510173038 30 0.0 0.0 0.00 0.00 0.00 78 1012.1
20260510172526 30 0.0 0.0 0.00 0.00 0.00 79 1012.2
20260510172028 30 0.0 0.0 0.00 0.00 0.00 80 1012.3
20260510171556 29 0.0 0.0 0.00 0.00 0.00 80 1012.3
20260510171026 29 0.0 0.0 0.00 0.00 0.00 80 1012.3
20260510170526 29 0.0 0.0 0.00 0.00 0.00 80 1012.1
20260510170037 29 0.0 0.0 0.00 0.00 0.00 79 1012.1
20260510165528 29 0.0 0.0 0.00 0.00 0.00 79 1012.1
20260510165029 29 0.0 0.0 0.00 0.00 0.00 80 1012.0
20260510164540 29 0.0 0.0 0.00 0.00 0.00 80 1012.0
20260510164028 29 0.0 0.0 0.00 0.00 0.00 81 1011.9
20260510163529 29 0.0 0.0 0.00 0.00 0.00 80 1012.0
20260510163040 29 0.0 0.0 0.00 0.00 0.00 80 1011.9
20260510162530 29 0.0 0.0 0.00 0.00 0.00 80 1011.9
20260510162027 29 0.0 0.0 0.00 0.00 0.00 81 1011.9
20260510161537 29 0.0 0.0 0.00 0.00 0.00 81 1011.8
20260510161028 28 0.0 0.0 0.00 0.00 0.00 81 1011.8
20260510160529 28 0.0 0.0 0.00 0.00 0.00 82 1011.8
20260510160047 28 0.0 0.0 0.00 0.00 0.00 82 1011.7
20260510155526 28 0.0 0.0 0.00 0.00 0.00 83 1011.7
20260510155029 28 0.0 0.0 0.00 0.00 0.00 84 1011.8
20260510154602 27 0.0 0.0 0.00 0.00 0.00 85 1011.9
20260510154029 27 0.0 0.0 0.00 0.00 0.00 88 1012.0
20260510153530 26 0.0 0.0 0.00 0.00 0.00 90 1012.0
20260510153050 26 0.0 0.0 0.00 0.00 0.00 90 1011.9
20260510152528 26 0.0 0.0 0.00 0.00 0.00 90 1011.9
20260510152028 26 0.0 0.0 0.00 0.00 0.00 90 1011.8
20260510151539 26 0.0 0.0 0.00 0.00 0.00 90 1011.8
20260510151031 26 0.0 0.0 0.00 0.00 0.00 90 1011.9
20260510150531 26 0.0 0.0 0.00 0.00 0.00 90 1011.9
20260510150038 26 0.0 0.0 0.00 0.00 0.00 90 1011.9
20260510145531 26 0.0 0.0 0.00 0.00 0.00 90 1011.9
20260510145030 25 0.0 0.0 0.00 0.00 0.00 90 1011.9
20260510144551 25 0.0 0.0 0.00 0.00 0.00 90 1011.9
20260510144036 25 0.0 0.0 0.00 0.00 0.00 90 1011.9
20260510143533 25 0.0 0.0 0.00 0.00 0.00 90 1011.9
20260510143045 25 0.0 0.0 0.00 0.00 0.00 90 1012.0
20260510142532 25 0.0 0.0 0.00 0.00 0.00 90 1012.0
20260510142030 25 0.0 0.0 0.00 0.00 0.00 90 1012.0
20260510141547 25 0.0 0.0 0.00 0.00 0.00 90 1012.0
20260510141032 25 0.0 0.0 0.00 0.00 0.00 90 1012.0
20260510140530 25 0.0 0.0 0.00 0.00 0.00 90 1011.9
20260510140041 25 0.0 0.0 0.00 0.00 0.00 90 1012.0
20260510135531 25 0.0 0.0 0.00 0.00 0.00 90 1011.9
20260510135031 25 0.0 0.0 0.00 0.00 0.00 90 1011.8
20260510134548 25 0.0 0.0 0.00 0.00 0.00 90 1011.7
20260510134030 25 0.0 0.0 0.00 0.00 0.00 89 1011.7
20260510133530 25 0.0 0.0 0.00 0.00 0.00 89 1011.8
20260510133047 25 0.0 0.0 0.00 0.00 0.00 89 1011.8
20260510132530 25 0.0 0.0 0.00 0.00 0.00 89 1011.8
20260510132031 24 0.0 0.0 0.00 0.00 0.00 89 1011.7
20260510131545 24 0.0 0.0 0.00 0.00 0.00 89 1011.7
20260510131028 24 0.0 0.0 0.00 0.00 0.00 89 1011.7
20260510130528 24 0.0 0.0 0.00 0.00 0.00 89 1011.7
20260510130044 24 0.0 0.0 0.00 0.00 0.00 89 1011.6
20260510125529 24 0.0 0.0 0.00 0.00 0.00 89 1011.6
20260510125031 24 0.0 0.0 0.00 0.00 0.00 89 1011.5
20260510124548 24 0.0 0.0 0.00 0.00 0.00 89 1011.5
20260510124028 24 0.0 0.0 0.00 0.00 0.00 89 1011.3
20260510123529 24 0.0 0.0 0.00 0.00 0.00 89 1011.3
20260510123039 24 0.0 0.0 0.00 0.00 0.00 89 1011.3
20260510122530 23 0.0 0.0 0.00 0.00 0.00 89 1011.2
20260510122028 23 0.0 0.0 0.00 0.00 0.00 89 1011.0
20260510121546 23 0.0 0.0 0.00 0.00 0.00 89 1010.9
20260510121029 23 0.0 0.0 0.00 0.00 0.00 89 1010.8
20260510120529 23 0.0 0.0 0.00 0.00 0.00 89 1010.7
20260510120038 23 0.0 0.0 0.00 0.00 0.00 89 1010.7
20260510115528 23 0.0 0.0 0.00 0.00 0.00 89 1010.5
20260510115028 24 0.0 0.0 0.00 0.00 0.00 88 1010.5
20260510114545 24 0.0 0.0 0.00 0.00 0.00 88 1010.4
20260510114029 24 0.0 0.0 0.00 0.00 0.00 88 1010.5
20260510113528 24 0.0 0.0 0.00 0.00 0.00 88 1010.4
20260510113042 24 0.0 0.0 0.00 0.00 0.00 88 1010.4
20260510112528 24 0.0 0.0 0.00 0.00 0.00 88 1010.4
20260510112027 24 0.0 0.0 0.00 0.00 0.00 88 1010.3
20260510111545 24 0.0 0.0 0.00 0.00 0.00 88 1010.3
20260510111030 24 0.0 0.0 0.00 0.00 0.00 88 1010.3
20260510110527 24 0.0 0.0 0.00 0.00 0.00 88 1010.3
20260510110039 24 0.0 0.0 0.00 0.00 0.00 88 1010.3
20260510105529 24 0.0 0.0 0.00 0.00 0.00 88 1010.4
20260510105031 24 0.0 0.0 0.00 0.00 0.00 88 1010.3
20260510104555 24 0.0 0.0 0.00 0.00 0.00 88 1010.2
20260510104028 24 0.0 0.0 0.00 0.00 0.00 88 1010.1
20260510103528 24 0.0 0.0 0.00 0.00 0.00 88 1010.1
20260510103045 24 0.0 0.0 0.00 0.00 0.00 88 1010.1
20260510102529 24 0.0 0.0 0.00 0.00 0.00 88 1010.1
20260510102030 24 0.0 0.0 0.00 0.00 0.00 88 1010.1
20260510101548 24 0.0 0.0 0.00 0.00 0.00 88 1010.1
20260510101028 24 0.0 0.0 0.00 0.00 0.00 88 1010.1
20260510100529 24 0.0 0.0 0.00 0.00 0.00 88 1010.2
20260510100050 24 0.0 0.0 0.00 0.00 0.00 88 1010.1
20260510095531 24 0.0 0.0 0.00 0.00 0.00 88 1010.2
20260510095027 24 0.0 0.0 0.00 0.00 0.00 88 1010.1
20260510094537 24 0.0 0.0 0.00 0.00 0.00 88 1010.3
20260510094029 24 0.0 0.0 0.00 0.00 0.00 88 1010.0
20260510093529 24 0.0 0.0 0.00 0.00 0.00 88 1009.9
20260510093046 24 0.0 0.0 0.00 0.00 0.00 88 1009.9
20260510092529 24 0.0 0.0 0.00 0.00 0.00 88 1010.1
20260510092029 24 0.0 0.0 0.00 0.00 0.00 88 1010.2
20260510091544 24 0.0 0.0 0.00 0.00 0.00 88 1010.1
20260510091028 24 0.0 0.0 0.00 0.00 0.00 88 1010.0
20260510090529 24 0.0 0.0 0.00 0.00 0.00 88 1010.0
20260510090042 24 0.0 0.0 0.00 0.00 0.00 88 1010.0
20260510085528 24 0.0 0.0 0.00 0.00 0.00 88 1010.1
20260510085028 24 0.0 0.0 0.00 0.00 0.00 88 1010.2
20260510084553 24 0.0 0.0 0.00 0.00 0.00 88 1010.0
20260510084028 24 0.0 0.0 0.00 0.00 0.00 88 1010.0
20260510083534 24 0.0 0.0 0.00 0.00 0.00 88 1010.0
20260510083111 24 0.0 0.0 0.00 0.00 0.00 88 1010.2
20260510082527 24 0.0 0.0 0.00 0.00 0.00 88 1010.4
20260510082031 24 0.0 0.0 0.00 0.00 0.00 88 1010.5
20260510081541 24 0.0 0.0 0.00 0.00 0.00 87 1010.7
20260510081030 24 0.0 0.0 0.00 0.00 0.00 87 1010.9
20260510080529 24 0.0 0.0 0.00 0.00 0.00 87 1010.9
20260510080037 24 0.0 0.0 0.00 0.00 0.00 87 1011.1
20260510075531 24 0.0 0.0 0.00 0.00 0.00 87 1011.2
20260510075030 25 0.0 0.0 0.00 0.00 0.00 87 1011.2
20260510074542 25 0.0 0.0 0.00 0.00 0.00 87 1011.1
20260510074027 25 0.0 0.0 0.00 0.00 0.00 87 1011.2
20260510073529 25 0.0 0.0 0.00 0.00 0.00 87 1011.2
20260510073048 25 0.0 0.0 0.00 0.00 0.00 87 1011.1
20260510072528 25 0.0 0.0 0.00 0.00 0.00 87 1011.0
20260510072035 25 0.0 0.0 0.00 0.00 0.00 87 1010.9
20260510071539 25 0.0 0.0 0.00 0.00 0.00 87 1010.9
20260510071029 25 0.0 0.0 0.00 0.00 0.00 87 1011.0
20260510070534 25 0.0 0.0 0.00 0.00 0.00 87 1010.9
20260510070039 25 0.0 0.0 0.00 0.00 0.00 87 1011.0
20260510065530 25 0.0 0.0 0.00 0.00 0.00 87 1011.0
20260510065032 25 0.0 0.0 0.00 0.00 0.00 87 1010.9
20260510064549 25 0.0 0.0 0.00 0.00 0.00 86 1010.9
20260510064029 25 0.0 0.0 0.00 0.00 0.00 86 1011.0
20260510063530 25 0.0 0.0 0.00 0.00 0.00 86 1011.1
20260510063038 25 0.0 0.0 0.00 0.00 0.00 86 1011.2
20260510062532 25 0.0 0.0 0.00 0.00 0.00 86 1011.0
20260510062029 25 0.0 0.0 0.00 0.00 0.00 86 1011.1
20260510061552 25 0.0 0.0 0.00 0.00 0.00 86 1011.1
20260510061030 25 0.0 0.0 0.00 0.00 0.00 86 1011.1
20260510060530 25 0.0 0.0 0.00 0.00 0.00 86 1011.2
20260510060045 25 0.0 0.0 0.00 0.00 0.00 85 1011.3
20260510055529 25 0.0 0.0 0.00 0.00 0.00 85 1011.2
20260510055030 25 0.0 0.0 0.00 0.00 0.00 85 1011.2
20260510054539 25 0.0 0.0 0.00 0.00 0.00 85 1011.3
20260510054032 25 0.0 0.0 0.00 0.00 0.00 85 1011.4
20260510053532 25 0.0 0.0 0.00 0.00 0.00 85 1011.3
20260510053100 25 0.0 0.0 0.00 0.00 0.00 85 1011.1
20260510052529 25 0.0 0.0 0.00 0.00 0.00 85 1011.1
20260510052031 25 0.0 0.0 0.00 0.00 0.00 84 1011.2
20260510051542 25 0.0 0.0 0.00 0.00 0.00 84 1011.1
20260510051030 25 0.0 0.0 0.00 0.00 0.00 84 1011.2
20260510050529 25 0.0 0.0 0.00 0.00 0.00 84 1011.2
20260510050039 25 0.0 0.0 0.00 0.00 0.00 83 1011.2
20260510045529 25 0.0 0.0 0.00 0.00 0.00 83 1011.3
20260510045029 25 0.0 0.0 0.00 0.00 0.00 83 1011.3
20260510044548 25 0.0 0.0 0.00 0.00 0.00 83 1011.3
20260510044030 25 0.0 0.0 0.00 0.00 0.00 83 1011.3
20260510043530 25 0.0 0.0 0.00 0.00 0.00 83 1011.3
20260510043042 25 0.0 0.0 0.00 0.00 0.00 83 1011.4
20260510042526 26 0.0 0.0 0.00 0.00 0.00 83 1011.5
20260510042033 26 0.0 0.0 0.00 0.00 0.00 83 1011.5
20260510041540 26 0.0 0.0 0.00 0.00 0.00 83 1011.5
20260510041029 26 0.0 0.0 0.00 0.00 0.00 82 1011.2
20260510040528 26 0.0 0.0 0.00 0.00 0.00 82 1011.3
20260510040039 26 0.0 0.0 0.00 0.00 0.00 82 1011.3
20260510035527 26 0.0 0.0 0.00 0.00 0.00 82 1011.4
20260510035027 26 0.0 0.0 0.00 0.00 0.00 82 1011.2
20260510034538 26 0.0 0.0 0.00 0.00 0.00 81 1011.2
20260510034029 26 0.0 0.0 0.00 0.00 0.00 81 1010.8
20260510033528 26 0.0 0.0 0.00 0.00 0.00 81 1010.7
20260510033038 26 0.0 0.0 0.00 0.00 0.00 81 1010.7
20260510032528 26 0.0 0.0 0.00 0.00 0.00 80 1010.7
20260510032030 26 0.0 0.0 0.00 0.00 0.00 80 1010.6
20260510031556 26 0.0 0.0 0.00 0.00 0.00 80 1010.5
20260510031028 26 0.0 0.0 0.00 0.00 0.00 80 1010.4
20260510030527 26 0.0 0.0 0.00 0.00 0.00 79 1010.3
20260510030039 26 0.0 0.0 0.00 0.00 0.00 79 1010.3
20260510025529 26 0.0 0.0 0.00 0.00 0.00 79 1010.2
20260510025029 26 0.0 0.0 0.00 0.00 0.00 79 1010.2
20260510024541 26 0.0 0.0 0.00 0.00 0.00 78 1010.2
20260510024027 26 0.0 0.0 0.00 0.00 0.00 78 1010.2
20260510023528 26 0.0 0.0 0.00 0.00 0.00 78 1010.1
20260510023047 26 0.0 0.0 0.00 0.00 0.00 77 1010.1
20260510022528 26 0.0 0.0 0.00 0.00 0.00 77 1009.9
20260510022029 26 0.0 0.0 0.00 0.00 0.00 77 1009.9
20260510021543 27 0.0 0.0 0.00 0.00 0.00 76 1009.8
20260510021028 27 0.0 0.0 0.00 0.00 0.00 76 1009.7
20260510020528 27 0.0 0.0 0.00 0.00 0.00 76 1009.7
20260510020039 27 0.0 0.0 0.00 0.00 0.00 76 1009.5
20260510015528 27 0.0 0.0 0.00 0.00 0.00 76 1009.5
20260510015028 27 0.0 0.0 0.00 0.00 0.00 75 1009.3
20260510014538 27 0.0 0.0 0.00 0.00 0.00 75 1009.3
20260510014029 27 0.0 0.0 0.00 0.00 0.00 75 1009.2
20260510013529 27 0.0 0.0 0.00 0.00 0.00 75 1009.2
20260510013045 27 0.0 0.0 0.00 0.00 0.00 75 1009.2
20260510012528 27 0.0 0.0 0.00 0.00 0.00 74 1009.0
20260510012030 27 0.0 0.0 0.00 0.00 0.00 74 1009.0
20260510011537 27 0.0 0.0 0.00 0.00 0.00 74 1008.8
20260510011029 27 0.0 0.0 0.00 0.00 0.00 74 1008.8
20260510010528 27 0.0 0.0 0.00 0.00 0.00 74 1008.9
20260510010044 27 0.0 0.0 0.00 0.00 0.00 74 1008.7
20260510005528 27 0.0 0.0 0.00 0.00 0.00 74 1008.7
20260510005029 27 0.0 0.0 0.00 0.00 0.00 74 1008.8
20260510004543 27 0.0 0.0 0.00 0.00 0.00 73 1008.7
20260510004029 27 0.0 0.0 0.00 0.00 0.00 73 1008.7
20260510003528 27 0.0 0.0 0.00 0.00 0.00 73 1008.7
20260510003039 28 0.0 0.0 0.00 0.00 0.00 73 1008.6
20260510002528 28 0.0 0.0 0.00 0.00 0.00 73 1008.7
20260510002027 28 0.0 0.0 0.00 0.00 0.00 73 1008.5
20260510001538 28 0.0 0.0 0.00 0.00 0.00 73 1008.5
20260510001029 28 0.0 0.0 0.00 0.00 0.00 72 1008.5
20260510000528 28 0.0 0.0 0.00 0.00 0.00 72 1008.5
20260510000038 28 0.0 0.0 0.00 0.00 0.00 72 1008.5
20260509235527 28 0.0 0.0 0.00 0.00 0.00 72 1008.5
20260509235028 28 0.0 0.0 0.00 0.00 0.00 72 1008.3
20260509234540 28 0.0 0.0 0.00 0.00 0.00 71 1008.2
20260509234027 28 0.0 0.0 0.00 0.00 0.00 71 1008.1
20260509233529 28 0.0 0.0 0.00 0.00 0.00 71 1008.2
20260509233043 28 0.0 0.0 0.00 0.00 0.00 71 1008.3
20260509232528 28 0.0 0.0 0.00 0.00 0.00 71 1008.3
20260509232028 28 0.0 0.0 0.00 0.00 0.00 70 1008.3
20260509231539 28 0.0 0.0 0.00 0.00 0.00 70 1008.2
20260509231028 29 0.0 0.0 0.00 0.00 0.00 71 1008.3
20260509230528 29 0.0 0.0 0.00 0.00 0.00 70 1008.3
20260509230041 29 0.0 0.0 0.00 0.00 0.00 70 1008.3
20260509225527 29 0.0 0.0 0.00 0.00 0.00 70 1008.2
20260509225028 29 0.0 0.0 0.00 0.00 0.00 70 1008.2
20260509224539 29 0.0 0.0 0.00 0.00 0.00 70 1008.2
20260509224027 29 0.0 0.0 0.00 0.00 0.00 70 1008.2
20260509223528 30 0.0 0.0 0.00 0.00 0.00 70 1008.1
20260509223039 30 0.0 0.0 0.00 0.00 0.00 70 1008.2
20260509222529 30 0.0 0.0 0.00 0.00 0.00 69 1008.1
20260509222028 30 0.0 0.0 0.00 0.00 0.00 69 1008.2
20260509221542 30 0.0 0.0 0.00 0.00 0.00 68 1008.1
20260509221028 30 0.0 0.0 0.00 0.00 0.00 68 1008.1
20260509220531 30 0.0 0.0 0.00 0.00 0.00 68 1008.1
20260509220041 30 0.0 0.0 0.00 0.00 0.00 69 1008.0
20260509215529 30 0.0 0.0 0.00 0.00 0.00 69 1007.9
20260509215031 30 0.0 0.0 0.00 0.00 0.00 69 1008.0
20260509214539 31 0.0 0.0 0.00 0.00 0.00 68 1008.1
20260509214031 31 0.0 0.0 0.00 0.00 0.00 68 1008.1
20260509213528 31 0.0 0.0 0.00 0.00 0.00 68 1008.3
20260509213038 31 0.0 0.0 0.00 0.00 0.00 68 1008.2
20260509212527 31 0.0 0.0 0.00 0.00 0.00 68 1008.1
20260509212032 31 0.0 0.0 0.00 0.00 0.00 68 1008.3
20260509211545 31 0.0 0.0 0.00 0.00 0.00 68 1008.2
20260509211030 31 0.0 0.0 0.00 0.00 0.00 68 1008.3
20260509210528 31 0.0 0.0 0.00 0.00 0.00 68 1008.3
20260509210053 31 0.0 0.0 0.00 0.00 0.00 69 1008.4
20260509205527 31 0.0 0.0 0.00 0.00 0.00 68 1008.3
20260509205028 31 0.0 0.0 0.00 0.00 0.00 67 1008.4
20260509204541 31 0.0 0.0 0.00 0.00 0.00 66 1008.3
20260509204028 31 0.0 0.0 0.00 0.00 0.00 66 1008.2
20260509203527 32 0.0 0.0 0.00 0.00 0.00 66 1008.3
20260509203040 32 0.0 0.0 0.00 0.00 0.00 65 1008.4
20260509202528 32 0.0 0.0 0.00 0.00 0.00 66 1008.3
20260509202029 32 0.0 0.0 0.00 0.00 0.00 67 1008.4
20260509201537 32 0.0 0.0 0.00 0.00 0.00 65 1008.5
20260509201027 32 0.0 0.0 0.00 0.00 0.00 64 1008.7
20260509200543 32 0.0 0.0 0.00 0.00 0.00 64 1008.7
20260509200044 32 0.0 0.0 0.00 0.00 0.00 65 1008.6
20260509195531 32 0.0 0.0 0.00 0.00 0.00 66 1008.7
20260509195027 31 0.0 0.0 0.00 0.00 0.00 66 1008.8
20260509194538 31 0.0 0.0 0.00 0.00 0.00 65 1009.0
20260509194028 31 0.0 0.0 0.00 0.00 0.00 67 1009.0
20260509193529 31 0.0 0.0 0.00 0.00 0.00 69 1009.1
20260509193044 31 0.0 0.0 0.00 0.00 0.00 69 1009.2
20260509192528 31 0.0 0.0 0.00 0.00 0.00 68 1009.3
20260509192032 31 0.0 0.0 0.00 0.00 0.00 70 1009.4
20260509191543 31 0.0 0.0 0.00 0.00 0.00 71 1009.3
20260509191028 30 0.0 0.0 0.00 0.00 0.00 69 1009.2